This demonstration page uses our WeatherBlox Daily Observations layout. Learn more.

Left ArrowRight Arrow

Hourly Observations for April 27, 2015

Temp ( °F °C ) Dew Point ( °F °C ) Humidity (%) Winds ( mph kmh ) Pressure ( in mb ) Visibility ( mi km ) Precip ( " mm )
12:16 am 00:16 Clear 45 7 27 -3 49 49 NNW 9 15 30 1016 10 16.0934 N/A
12:56 am 00:56 Clear 43 6 27 -3 53 53 NNW 8 13 30 1016 10 16.0934 N/A
1:16 am 01:16 Partly Cloudy 43 6 27 -3 53 53 NNW 7 11 30 1016 10 16.0934 N/A
1:36 am 01:36 Clear 41 5 27 -3 57 57 NW 5 7 30 1016 10 16.0934 N/A
1:56 am 01:56 Clear 39 4 25 -4 56 56 NNW 6 9 30 1016 10 16.0934 N/A
2:16 am 02:16 Clear 39 4 25 -4 56 56 NW 5 7 30 1016 10 16.0934 N/A
2:36 am 02:36 Partly Cloudy 39 4 25 -4 56 56 NW 5 7 30 1016 10 16.0934 N/A
2:56 am 02:56 Mostly Cloudy 41 5 25 -4 53 53 NNW 6 9 30 1016 10 16.0934 N/A
3:16 am 03:16 Mostly Cloudy 41 5 25 -4 53 53 NW 6 9 30 1016 10 16.0934 N/A
3:36 am 03:36 Mostly Cloudy 39 4 25 -4 56 56 NNW 6 9 30 1016 10 16.0934 N/A
3:56 am 03:56 Partly Cloudy 39 4 23 -5 52 52 NW 3 6 29.97 1015 10 16.0934 N/A
4:16 am 04:16 Clear 37 3 23 -5 56 56 NNW 5 7 29.97 1015 10 16.0934 N/A
4:36 am 04:36 Clear 37 3 23 -5 56 56 NW 5 7 29.97 1015 10 16.0934 N/A
4:56 am 04:56 Clear 36 2 23 -5 60 60 NW 3 6 30 1016 10 16.0934 N/A
5:16 am 05:16 Clear 36 2 23 -5 60 60 NNW 5 7 30 1016 10 16.0934 N/A
5:36 am 05:36 Clear 36 2 25 -4 65 65 NNW 5 7 30 1016 10 16.0934 N/A
5:56 am 05:56 Clear 34 1 25 -4 70 70 NNW 3 6 30 1016 10 16.0934 N/A
6:16 am 06:16 Clear 34 1 25 -4 70 70 NW 6 9 30.03 1017 10 16.0934 N/A
6:36 am 06:36 Clear 34 1 25 -4 70 70 NW 5 7 30.03 1017 10 16.0934 N/A
6:56 am 06:56 Sunny 34 1 25 -4 70 70 WNW 5 7 30.03 1017 10 16.0934 N/A
7:16 am 07:16 Sunny 36 2 25 -4 65 65 WNW 6 9 30.06 1018 10 16.0934 N/A
7:36 am 07:36 Sunny 36 2 27 -3 70 70 NW 6 9 30.06 1018 10 16.0934 N/A
7:56 am 07:56 Sunny 37 3 28 -2 70 70 WNW 7 11 30.03 1017 10 16.0934 N/A
8:16 am 08:16 Sunny 39 4 28 -2 65 65 WNW 7 11 30.03 1017 10 16.0934 N/A
8:36 am 08:36 Sunny 41 5 28 -2 61 61 NW 8 13 30.03 1017 10 16.0934 N/A
8:56 am 08:56 Sunny 43 6 28 -2 57 57 NNW 10 17 30.06 1018 10 16.0934 N/A
9:16 am 09:16 Sunny 45 7 28 -2 53 53 NNW 10 17 30.06 1018 10 16.0934 N/A
9:36 am 09:36 Sunny 46 8 28 -2 50 50 NNW 13 20 30.06 1018 10 16.0934 N/A
9:56 am 09:56 Sunny 46 8 28 -2 50 50 NNW 9 15 30.06 1018 10 16.0934 N/A
10:16 am 10:16 Sunny 48 9 28 -2 46 46 NNW 12 19 30.06 1018 10 16.0934 N/A
10:36 am 10:36 Sunny 50 10 30 -1 47 47 N 14 22 30.06 1018 10 16.0934 N/A
10:56 am 10:56 Sunny 50 10 28 -2 43 43 N 13 20 30.06 1018 10 16.0934 N/A
11:16 am 11:16 Sunny 52 11 30 -1 44 44 N 16 26 30.06 1018 10 16.0934 N/A
11:36 am 11:36 Sunny 52 11 30 -1 44 44 NNW 16 26 30.03 1017 10 16.0934 N/A
11:56 am 11:56 Sunny 54 12 30 -1 41 41 N 14 22 30 1016 10 16.0934 N/A
12:16 pm 12:16 Sunny 54 12 28 -2 38 38 NNW 16 26 30.03 1017 10 16.0934 N/A
12:36 pm 12:36 Sunny 55 13 30 -1 38 38 N 16 26 30.03 1017 10 16.0934 N/A
12:56 pm 12:56 Sunny 55 13 30 -1 38 38 NNW 16 26 30.03 1017 10 16.0934 N/A
1:16 pm 13:16 Partly Cloudy 55 13 30 -1 38 38 NW 12 19 30.03 1017 10 16.0934 N/A
1:36 pm 13:36 Partly Cloudy 55 13 28 -2 36 36 NNW 16 26 30.03 1017 10 16.0934 N/A
1:56 pm 13:56 Partly Cloudy 55 13 30 -1 38 38 NNW 17 28 30.03 1017 10 16.0934 N/A
2:16 pm 14:16 Partly Cloudy 55 13 30 -1 38 38 N 13 20 30.03 1017 10 16.0934 N/A
2:36 pm 14:36 Partly Cloudy 55 13 28 -2 36 36 N 13 20 30.03 1017 10 16.0934 N/A
2:56 pm 14:56 Mostly Cloudy 55 13 27 -3 33 33 NNW 15 24 30.03 1017 10 16.0934 N/A
3:16 pm 15:16 Mostly Cloudy 55 13 27 -3 33 33 NW 12 19 30.03 1017 10 16.0934 N/A
3:35 pm 15:35 Mostly Cloudy 55 13 27 -3 33 33 NNW 9 15 30.03 1017 10 16.0934 N/A
3:56 pm 15:56 Mostly Cloudy 54 12 28 -2 38 38 NW 14 22 30.03 1017 10 16.0934 N/A
4:16 pm 16:16 Mostly Cloudy 54 12 28 -2 38 38 N 15 24 30.03 1017 10 16.0934 N/A
4:35 pm 16:35 Mostly Cloudy 54 12 28 -2 38 38 N 15 24 30.03 1017 10 16.0934 N/A
4:56 pm 16:56 Mostly Cloudy 54 12 28 -2 38 38 NNW 16 26 30.03 1017 10 16.0934 N/A
5:16 pm 17:16 Cloudy 54 12 30 -1 41 41 NNW 15 24 30.03 1017 10 16.0934 N/A
5:36 pm 17:36 Mostly Cloudy 54 12 28 -2 38 38 N 16 26 30.03 1017 10 16.0934 N/A
5:56 pm 17:56 Mostly Cloudy 54 12 30 -1 41 41 N 14 22 30.03 1017 10 16.0934 N/A
6:16 pm 18:16 Mostly Cloudy 54 12 30 -1 41 41 N 14 22 30.03 1017 10 16.0934 N/A
6:36 pm 18:36 Mostly Cloudy 54 12 28 -2 38 38 NNE 14 22 30.03 1017 10 16.0934 N/A
6:56 pm 18:56 Mostly Cloudy 54 12 30 -1 41 41 N 13 20 30.03 1017 10 16.0934 N/A
7:16 pm 19:16 Mostly Cloudy 52 11 30 -1 44 44 N 14 22 30.06 1018 10 16.0934 N/A
7:36 pm 19:36 Cloudy 52 11 28 -2 41 41 N 12 19 30.09 1019 10 16.0934 N/A
7:56 pm 19:56 Cloudy 52 11 30 -1 44 44 N 10 17 30.09 1019 10 16.0934 N/A
8:16 pm 20:16 Cloudy 52 11 30 -1 44 44 N 13 20 30.09 1019 10 16.0934 N/A
8:36 pm 20:36 Cloudy 50 10 30 -1 47 47 N 9 15 30.09 1019 10 16.0934 N/A
8:56 pm 20:56 Cloudy 50 10 30 -1 47 47 N 9 15 30.09 1019 10 16.0934 N/A
9:15 pm 21:15 Mostly Cloudy 48 9 30 -1 50 50 N 8 13 30.09 1019 10 16.0934 N/A
9:36 pm 21:36 Mostly Cloudy 48 9 32 0 54 54 N 7 11 30.09 1019 10 16.0934 N/A
9:56 pm 21:56 Cloudy 48 9 32 0 54 54 N 7 11 30.09 1019 10 16.0934 N/A
10:15 pm 22:15 Cloudy 48 9 32 0 54 54 N 9 15 30.09 1019 10 16.0934 N/A
10:36 pm 22:36 Partly Cloudy 46 8 32 0 57 57 NNE 8 13 30.09 1019 10 16.0934 N/A
10:56 pm 22:56 Partly Cloudy 45 7 32 0 61 61 NNE 7 11 30.12 1020 10 16.0934 N/A
11:15 pm 23:15 Clear 43 6 32 0 66 66 NNE 7 11 30.12 1020 10 16.0934 N/A
11:36 pm 23:36 Clear 43 6 32 0 66 66 NE 6 9 30.12 1020 10 16.0934 N/A
11:56 pm 23:56 Clear 41 5 32 0 70 70 NE 7 11 30.12 1020 10 16.0934 N/A

Powered by AerisWeather